World > North America > United States > New York   City of Peekskill, New York

Hourly Peekskill, NY Regional Weather

Feedback E-mail the Weather

Latest News

Peekskill, NY Weather Maps

°F °C°F °C
Peekskill Weather Map
UTC Time: 5/25/2022, 21:59
Your Time:

Peekskill, NY Regional Weather

Expires:202205252100;;573215
ASUS41 KALY 252010
RWRALY

NEW YORK STATE HOURLY WEATHER ROUNDUP
NATIONAL WEATHER SERVICE ALBANY NY
400 PM EDT WED MAY 25 2022

NOTE: "FAIR" INDICATES FEW OR NO CLOUDS BELOW 12,000 FEET WITH NO
SIGNIFICANT WEATHER AND/OR NO OBSTRUCTIONS TO VISIBILITY.


NYZ032-033-038>043-046>054-057>066-NYZ062>081-082-084-252100-
EAST

  
CITY           SKY/WX    TMP DP  RH WIND       PRES   REMARKS
ALBANY         PTSUNNY   76  50  40 S8        30.29F                  
GLENS FALLS    MOSUNNY   72  49  44 CALM      30.28F                  
POUGHKEEPSIE   MOSUNNY   74  51  44 W12       30.31F                  
NEWBURGH       MOSUNNY   72  50  46 SE8G17    30.34S                  
MONTGOMERY     MOSUNNY   72  49  44 S9        30.31F                  
WHITE PLAINS   MOSUNNY   69  49  48 SE10      30.35F                  
ISLIP          PTSUNNY   63  45  51 SE13      30.38F                  
NEW YORK CITY  MOSUNNY   68  45  43 S8        30.36S                  
CENTRAL PARK   MOSUNNY   66  47  50 MISG      30.39S                  
$$


SKY/WX - Weather  TMP - Temperature  DP - Dew Point  RH - Humidity
WIND - Wind Direction/Speed PRES - Barometric Pressure VSB - Visibility
WCI - Wind Chill Index E13G22 Wind - East Wind 13 mph/Gusts of 22 mph

Trending Headlines

Peekskill Radar Loop



Peekskill Quick Facts


National Two Day Weather Forecast


E-mail the Peekskill Weather Forecast

Voice your opinion or tell us about page issues...